Location: Alamogordo
(32.8990°N, 105.9600°W)
Time: 09:43:05
(UTC-06:00)

N. Korean satellite - Visible Passes

Search period start: 05 October 2022 00:00
Search period end: 15 October 2022 00:00
Orbit: 426 x 467 km, 97.3° (Epoch: 05 October)

Date Brightness Start Highest point End Pass type
(mag) Time Alt. Az. Time Alt. Az. Time Alt. Az.
05 Oct 8.1 05:52:09 10° NNE 05:55:09 34° E 05:58:10 10° SSE visible
06 Oct 10.0 05:18:30 10° E 05:18:59 10° E 05:19:28 10° ESE visible
07 Oct 6.4 06:12:27 10° NNE 06:15:42 79° E 06:18:58 10° S visible
08 Oct 9.2 05:37:00 10° NE 05:39:31 20° E 05:42:01 10° SSE visible
09 Oct 6.6 06:32:50 10° N 06:35:58 45° WNW 06:39:07 10° SSW visible
10 Oct 7.7 05:56:38 10° NNE 05:59:45 41° E 06:02:52 10° S visible
11 Oct 9.8 05:21:59 10° ENE 05:23:19 12° E 05:24:39 10° ESE visible
12 Oct 6.3 06:16:25 10° N 06:19:42 89° WNW 06:22:59 10° SSW visible
13 Oct 9.0 05:40:33 10° NE 05:43:14 23° E 05:45:55 10° SSE visible
14 Oct 6.7 06:36:15 10° N 06:39:22 40° WNW 06:42:29 10° SSW visible
